Time,TemperatureF,DewpointF,PressureIn,WindDirection,WindDirectionDegrees,WindSpeedMPH,WindSpeedGustMPH,Humidity,HourlyPrecipIn,Conditions,Clouds,dailyrainin,SoftwareType,DateUTC
2013-03-05 00:02:00,31.0,23.0,29.64,NNE,29,5.0,13.0,73,0.00,,,0.00,,2013-03-05 05:02:00,
2013-03-05 00:12:00,31.0,23.0,29.64,NNE,29,5.0,13.0,73,0.00,,,0.00,,2013-03-05 05:12:00,
2013-03-05 00:22:00,31.0,23.0,29.64,ENE,67,5.0,9.0,72,0.00,,,0.00,,2013-03-05 05:22:00,
2013-03-05 00:32:00,31.0,23.0,29.65,West,281,7.0,13.0,73,0.00,,,0.00,,2013-03-05 05:32:00,
2013-03-05 00:42:00,31.0,23.0,29.65,West,281,7.0,13.0,73,0.00,,,0.00,,2013-03-05 05:42:00,
2013-03-05 00:52:00,32.0,24.0,29.65,NNE,17,5.0,17.0,72,0.00,,,0.00,,2013-03-05 05:52:00,
2013-03-05 01:01:00,31.0,23.0,29.66,NNW,348,7.0,15.0,72,0.00,,,0.00,,2013-03-05 06:01:00,
2013-03-05 01:11:00,31.0,23.0,29.66,NNW,348,7.0,15.0,72,0.00,,,0.00,,2013-03-05 06:11:00,
2013-03-05 01:22:00,31.0,23.0,29.66,NNW,336,7.0,17.0,72,0.00,,,0.00,,2013-03-05 06:22:00,
2013-03-05 01:32:00,31.0,23.0,29.66,East,84,8.0,18.0,72,0.00,,,0.00,,2013-03-05 06:32:00,
2013-03-05 01:42:00,31.0,23.0,29.66,East,84,8.0,18.0,72,0.00,,,0.00,,2013-03-05 06:42:00,
2013-03-05 01:52:00,31.0,23.0,29.67,NE,54,6.0,12.0,72,0.00,,,0.00,,2013-03-05 06:52:00,
2013-03-05 02:01:00,31.0,23.0,29.67,NE,42,5.0,15.0,72,0.00,,,0.00,,2013-03-05 07:01:00,
2013-03-05 02:11:00,31.0,23.0,29.67,NE,42,5.0,15.0,72,0.00,,,0.00,,2013-03-05 07:11:00,
2013-03-05 02:22:00,30.0,22.0,29.67,NNW,327,4.0,12.0,73,0.00,,,0.00,,2013-03-05 07:22:00,
2013-03-05 02:32:00,30.0,22.0,29.68,SW,225,6.0,10.0,73,0.00,,,0.00,,2013-03-05 07:32:00,
2013-03-05 02:42:00,30.0,22.0,29.68,SW,225,6.0,10.0,73,0.00,,,0.00,,2013-03-05 07:42:00,
2013-03-05 02:52:00,30.0,23.0,29.69,East,94,5.0,11.0,74,0.00,,,0.00,,2013-03-05 07:52:00,
2013-03-05 03:02:00,30.0,23.0,29.69,NNW,335,5.0,17.0,74,0.00,,,0.00,,2013-03-05 08:02:00,
2013-03-05 03:11:00,30.0,23.0,29.69,NNW,335,5.0,17.0,74,0.00,,,0.00,,2013-03-05 08:11:00,
2013-03-05 03:21:00,30.0,22.0,29.70,NNE,24,7.0,14.0,73,0.00,,,0.00,,2013-03-05 08:21:00,
2013-03-05 03:31:00,30.0,22.0,29.70,SW,229,5.0,10.0,73,0.00,,,0.00,,2013-03-05 08:31:00,
2013-03-05 03:41:00,30.0,22.0,29.70,SW,229,5.0,10.0,73,0.00,,,0.00,,2013-03-05 08:41:00,
2013-03-05 03:52:00,31.0,23.0,29.71,West,277,6.0,14.0,73,0.00,,,0.00,,2013-03-05 08:52:00,
2013-03-05 04:01:00,31.0,23.0,29.72,ESE,107,7.0,13.0,73,0.00,,,0.00,,2013-03-05 09:01:00,
2013-03-05 04:11:00,31.0,23.0,29.72,ESE,107,7.0,13.0,73,0.00,,,0.00,,2013-03-05 09:11:00,
2013-03-05 04:21:00,31.0,23.0,29.72,SE,144,6.0,14.0,73,0.00,,,0.00,,2013-03-05 09:21:00,
2013-03-05 07:32:00,33.0,25.0,29.81,NNE,16,7.0,13.0,71,0.00,,,0.00,,2013-03-05 12:32:00,
2013-03-05 07:42:00,33.0,25.0,29.81,NNE,16,7.0,13.0,71,0.00,,,0.00,,2013-03-05 12:42:00,
2013-03-05 07:53:00,33.0,25.0,29.82,WNW,289,5.0,12.0,72,0.00,,,0.00,,2013-03-05 12:53:00,
2013-03-05 08:02:00,34.0,26.0,29.82,WNW,292,5.0,13.0,72,0.00,,,0.00,,2013-03-05 13:02:00,
2013-03-05 08:12:00,34.0,26.0,29.82,WNW,292,5.0,13.0,72,0.00,,,0.00,,2013-03-05 13:12:00,
2013-03-05 08:22:00,35.0,27.0,29.83,NNW,344,5.0,12.0,72,0.00,,,0.00,,2013-03-05 13:22:00,
2013-03-05 08:32:00,35.0,27.0,29.83,SW,217,7.0,13.0,71,0.00,,,0.00,,2013-03-05 13:32:00,
2013-03-05 08:42:00,35.0,27.0,29.83,SW,217,7.0,13.0,71,0.00,,,0.00,,2013-03-05 13:42:00,
2013-03-05 08:52:00,36.0,28.0,29.83,East,90,6.0,12.0,71,0.00,,,0.00,,2013-03-05 13:52:00,
2013-03-05 09:02:00,37.0,28.0,29.84,NW,325,5.0,15.0,71,0.00,,,0.00,,2013-03-05 14:02:00,
2013-03-05 09:11:00,37.0,28.0,29.84,NW,325,5.0,15.0,71,0.00,,,0.00,,2013-03-05 14:11:00,
2013-03-05 09:22:00,38.0,29.0,29.84,NE,36,3.0,16.0,70,0.00,,,0.00,,2013-03-05 14:22:00,
2013-03-05 09:32:00,38.0,29.0,29.84,South,171,6.0,14.0,69,0.00,,,0.00,,2013-03-05 14:32:00,
2013-03-05 09:42:00,38.0,29.0,29.84,South,171,6.0,14.0,69,0.00,,,0.00,,2013-03-05 14:42:00,
2013-03-05 09:52:00,39.0,30.0,29.85,NNE,18,3.0,11.0,69,0.00,,,0.00,,2013-03-05 14:52:00,
2013-03-05 10:02:00,40.0,30.0,29.85,NE,46,3.0,8.0,67,0.00,,,0.00,,2013-03-05 15:02:00,
2013-03-05 10:11:00,40.0,30.0,29.85,NE,46,3.0,8.0,67,0.00,,,0.00,,2013-03-05 15:11:00,
2013-03-05 10:22:00,41.0,31.0,29.85,SSW,194,6.0,14.0,67,0.00,,,0.00,,2013-03-05 15:22:00,
2013-03-05 10:32:00,42.0,31.0,29.85,East,90,5.0,10.0,66,0.00,,,0.00,,2013-03-05 15:32:00,
2013-03-05 10:42:00,42.0,31.0,29.85,East,90,5.0,10.0,66,0.00,,,0.00,,2013-03-05 15:42:00,
2013-03-05 10:52:00,42.0,31.0,29.85,ENE,67,6.0,13.0,66,0.00,,,0.00,,2013-03-05 15:52:00,
2013-03-05 11:01:00,43.0,32.0,29.85,East,81,6.0,11.0,65,0.00,,,0.00,,2013-03-05 16:01:00,
2013-03-05 11:11:00,43.0,32.0,29.85,East,81,6.0,11.0,65,0.00,,,0.00,,2013-03-05 16:11:00,
2013-03-05 11:22:00,44.0,32.0,29.85,NE,36,4.0,11.0,63,0.00,,,0.00,,2013-03-05 16:22:00,
2013-03-05 11:32:00,44.0,32.0,29.85,WNW,289,5.0,11.0,62,0.00,,,0.00,,2013-03-05 16:32:00,
2013-03-05 11:42:00,44.0,32.0,29.85,WNW,289,5.0,11.0,62,0.00,,,0.00,,2013-03-05 16:42:00,
2013-03-05 11:52:00,44.0,31.0,29.86,ESE,115,6.0,13.0,61,0.00,,,0.00,,2013-03-05 16:52:00,
2013-03-05 12:01:00,45.0,32.0,29.86,ENE,57,3.0,8.0,61,0.00,,,0.00,,2013-03-05 17:01:00,
2013-03-05 12:11:00,45.0,32.0,29.86,ENE,57,3.0,8.0,61,0.00,,,0.00,,2013-03-05 17:11:00,
2013-03-05 12:21:00,45.0,32.0,29.87,East,95,1.0,9.0,60,0.00,,,0.00,,2013-03-05 17:21:00,
2013-03-05 12:32:00,45.0,32.0,29.87,SE,142,5.0,10.0,59,0.00,,,0.00,,2013-03-05 17:32:00,
2013-03-05 12:42:00,45.0,32.0,29.87,SE,142,5.0,10.0,59,0.00,,,0.00,,2013-03-05 17:42:00,
2013-03-05 12:53:00,45.0,32.0,29.87,NE,40,3.0,6.0,60,0.00,,,0.00,,2013-03-05 17:53:00,
2013-03-05 13:02:00,44.0,31.0,29.87,NNE,18,4.0,10.0,60,0.00,,,0.00,,2013-03-05 18:02:00,
2013-03-05 13:11:00,44.0,31.0,29.87,NNE,18,4.0,10.0,60,0.00,,,0.00,,2013-03-05 18:11:00,
2013-03-05 13:22:00,44.0,32.0,29.87,SE,129,5.0,14.0,62,0.00,,,0.00,,2013-03-05 18:22:00,
2013-03-05 13:32:00,44.0,34.0,29.88,NE,48,2.0,6.0,69,0.00,,,0.00,,2013-03-05 18:32:00,
2013-03-05 13:42:00,44.0,34.0,29.88,NE,48,2.0,6.0,69,0.00,,,0.00,,2013-03-05 18:42:00,
2013-03-05 13:53:00,43.0,35.0,29.88,ESE,115,2.0,8.0,72,0.00,,,0.00,,2013-03-05 18:53:00,
2013-03-05 14:01:00,43.0,35.0,29.88,ENE,78,1.0,7.0,72,0.00,,,0.00,,2013-03-05 19:01:00,
2013-03-05 14:11:00,43.0,35.0,29.88,ENE,78,1.0,7.0,72,0.00,,,0.00,,2013-03-05 19:11:00,
2013-03-05 14:21:00,44.0,36.0,29.89,NW,315,2.0,3.0,72,0.00,,,0.00,,2013-03-05 19:21:00,
2013-03-05 14:32:00,44.0,36.0,29.89,NW,306,2.0,4.0,72,0.00,,,0.00,,2013-03-05 19:32:00,
2013-03-05 14:42:00,44.0,36.0,29.89,NW,306,2.0,4.0,72,0.00,,,0.00,,2013-03-05 19:42:00,
2013-03-05 14:52:00,44.0,36.0,29.90,NE,51,3.0,6.0,72,0.00,,,0.00,,2013-03-05 19:52:00,
2013-03-05 15:01:00,45.0,35.0,29.90,NNE,16,2.0,6.0,69,0.00,,,0.00,,2013-03-05 20:01:00,
2013-03-05 15:11:00,44.0,35.0,29.91,East,95,2.0,6.0,71,0.00,,,0.00,,2013-03-05 20:11:00,
2013-03-05 15:22:00,44.0,35.0,29.91,East,95,2.0,6.0,71,0.00,,,0.00,,2013-03-05 20:22:00,
2013-03-05 15:32:00,44.0,36.0,29.91,NE,43,1.0,5.0,72,0.00,,,0.00,,2013-03-05 20:32:00,
2013-03-05 15:42:00,44.0,36.0,29.91,NE,43,1.0,5.0,72,0.00,,,0.00,,2013-03-05 20:42:00,
2013-03-05 15:52:00,44.0,35.0,29.91,ESE,120,2.0,5.0,70,0.00,,,0.00,,2013-03-05 20:52:00,
2013-03-05 16:02:00,44.0,34.0,29.92,ENE,59,3.0,6.0,69,0.00,,,0.00,,2013-03-05 21:02:00,
2013-03-05 16:11:00,44.0,34.0,29.92,ENE,59,3.0,6.0,69,0.00,,,0.00,,2013-03-05 21:11:00,
2013-03-05 16:22:00,43.0,34.0,29.92,East,90,1.0,3.0,70,0.00,,,0.00,,2013-03-05 21:22:00,
2013-03-05 16:32:00,44.0,34.0,29.93,NE,53,1.0,2.0,69,0.00,,,0.00,,2013-03-05 21:32:00,
2013-03-05 16:42:00,44.0,34.0,29.93,NE,53,1.0,2.0,69,0.00,,,0.00,,2013-03-05 21:42:00,
2013-03-05 16:52:00,44.0,35.0,29.93,ENE,69,2.0,4.0,70,0.00,,,0.00,,2013-03-05 21:52:00,
2013-03-05 17:01:00,43.0,35.0,29.94,ENE,69,2.0,5.0,72,0.00,,,0.00,,2013-03-05 22:01:00,
2013-03-05 17:11:00,43.0,35.0,29.94,ENE,69,2.0,5.0,72,0.00,,,0.00,,2013-03-05 22:11:00,
2013-03-05 17:22:00,42.0,34.0,29.94,ENE,59,0.0,1.0,74,0.00,,,0.00,,2013-03-05 22:22:00,
2013-03-05 17:32:00,41.0,34.0,29.94,NE,52,0.0,2.0,75,0.00,,,0.00,,2013-03-05 22:32:00,
2013-03-05 17:42:00,41.0,34.0,29.94,NE,52,0.0,2.0,75,0.00,,,0.00,,2013-03-05 22:42:00,
2013-03-05 17:52:00,40.0,33.0,29.95,ENE,78,0.0,1.0,77,0.00,,,0.00,,2013-03-05 22:52:00,
2013-03-05 18:01:00,39.0,33.0,29.95,SSW,200,1.0,2.0,80,0.00,,,0.00,,2013-03-05 23:01:00,
2013-03-05 18:11:00,39.0,33.0,29.95,SSW,200,1.0,2.0,80,0.00,,,0.00,,2013-03-05 23:11:00,
2013-03-05 18:22:00,39.0,34.0,29.95,SSW,200,0.0,1.0,81,0.00,,,0.00,,2013-03-05 23:22:00,
2013-03-05 18:32:00,39.0,34.0,29.96,WSW,244,3.0,4.0,81,0.00,,,0.00,,2013-03-05 23:32:00,
2013-03-05 18:42:00,39.0,34.0,29.96,WSW,244,3.0,4.0,81,0.00,,,0.00,,2013-03-05 23:42:00,
2013-03-05 18:53:00,39.0,34.0,29.96,West,271,2.0,3.0,81,0.00,,,0.00,,2013-03-05 23:53:00,
2013-03-05 19:01:00,39.0,33.0,29.96,WSW,246,0.0,1.0,80,0.00,,,0.00,,2013-03-06 00:01:00,
2013-03-05 19:11:00,39.0,33.0,29.96,WSW,246,0.0,1.0,80,0.00,,,0.00,,2013-03-06 00:11:00,
2013-03-05 19:21:00,39.0,34.0,29.96,NW,304,0.0,1.0,81,0.00,,,0.00,,2013-03-06 00:21:00,
2013-03-05 19:32:00,39.0,34.0,29.96,SW,227,0.0,2.0,81,0.00,,,0.00,,2013-03-06 00:32:00,
2013-03-05 19:42:00,39.0,34.0,29.96,SW,227,0.0,2.0,81,0.00,,,0.00,,2013-03-06 00:42:00,
2013-03-05 19:52:00,39.0,34.0,29.96,NNE,27,0.0,2.0,81,0.00,,,0.00,,2013-03-06 00:52:00,
2013-03-05 20:02:00,38.0,33.0,29.97,East,95,0.0,1.0,82,0.00,,,0.00,,2013-03-06 01:02:00,
2013-03-05 20:11:00,38.0,33.0,29.97,East,95,0.0,1.0,82,0.00,,,0.00,,2013-03-06 01:11:00,
2013-03-05 20:21:00,38.0,33.0,29.97,SW,234,0.0,1.0,81,0.00,,,0.00,,2013-03-06 01:21:00,
2013-03-05 20:32:00,38.0,33.0,29.98,ESE,107,0.0,2.0,81,0.00,,,0.00,,2013-03-06 01:32:00,
2013-03-05 20:42:00,38.0,33.0,29.98,ESE,107,0.0,2.0,81,0.00,,,0.00,,2013-03-06 01:42:00,
2013-03-05 20:52:00,39.0,33.0,29.98,NE,48,1.0,2.0,80,0.00,,,0.00,,2013-03-06 01:52:00,
2013-03-05 21:01:00,39.0,33.0,29.98,NNW,337,3.0,6.0,79,0.00,,,0.00,,2013-03-06 02:01:00,
2013-03-05 21:11:00,39.0,33.0,29.98,NNW,337,3.0,6.0,79,0.00,,,0.00,,2013-03-06 02:11:00,
2013-03-05 21:22:00,40.0,33.0,29.97,NW,306,3.0,8.0,77,0.00,,,0.00,,2013-03-06 02:22:00,
2013-03-05 21:32:00,39.0,32.0,29.98,NE,40,1.0,4.0,76,0.00,,,0.00,,2013-03-06 02:32:00,
2013-03-05 21:42:00,39.0,32.0,29.98,NE,40,1.0,4.0,76,0.00,,,0.00,,2013-03-06 02:42:00,
2013-03-05 21:52:00,40.0,33.0,29.98,East,99,2.0,5.0,77,0.00,,,0.00,,2013-03-06 02:52:00,
2013-03-05 22:02:00,39.0,33.0,29.98,East,84,1.0,5.0,78,0.00,,,0.00,,2013-03-06 03:02:00,
2013-03-05 22:11:00,39.0,33.0,29.98,East,84,1.0,5.0,78,0.00,,,0.00,,2013-03-06 03:11:00,
2013-03-05 22:22:00,39.0,33.0,29.98,ESE,121,2.0,5.0,78,0.00,,,0.00,,2013-03-06 03:22:00,
2013-03-05 22:32:00,39.0,33.0,29.98,ESE,118,3.0,5.0,80,0.00,,,0.00,,2013-03-06 03:32:00,
2013-03-05 22:42:00,39.0,33.0,29.98,ESE,118,3.0,5.0,80,0.00,,,0.00,,2013-03-06 03:42:00,
2013-03-05 22:53:00,39.0,33.0,29.98,NE,42,2.0,4.0,80,0.00,,,0.00,,2013-03-06 03:53:00,
2013-03-05 23:02:00,39.0,33.0,29.98,NE,53,2.0,6.0,80,0.00,,,0.00,,2013-03-06 04:02:00,
2013-03-05 23:11:00,39.0,33.0,29.98,NE,53,2.0,6.0,80,0.00,,,0.00,,2013-03-06 04:11:00,
2013-03-05 23:22:00,39.0,33.0,29.99,ENE,77,2.0,4.0,80,0.00,,,0.00,,2013-03-06 04:22:00,
2013-03-05 23:32:00,39.0,33.0,30.00,NE,41,3.0,7.0,80,0.00,,,0.00,,2013-03-06 04:32:00,
2013-03-05 23:42:00,39.0,33.0,30.00,NE,41,3.0,7.0,80,0.00,,,0.00,,2013-03-06 04:42:00,
2013-03-05 23:52:00,40.0,35.0,30.00,ENE,71,4.0,9.0,81,0.00,,,0.00,,2013-03-06 04:52:00,